CZ-11 R/B

Satellite information

Favourite Embed

Satellite Type and Status

ROCKET BODYIN ORBIT

Key statistics

Satellite CZ-11 R/B at a glance.

Uptime

2832

Days in orbit

Revolutions

≈ 14.3

Per day

Orbit

SSO

Sun Synchronous Orbit

Inclination

98.2

Latest

Satellite identification and parameters

Extended collection of information and parameters for CZ-11 R/B.

Object identification

Identified? True

Debris? False

Object name: CZ-11 R/B

International designator: 2018-008G

Object number (NORAD): 43161

Object ID (CCSDS): 43161

Country: PEOPLES REPUBLIC OF CHINA (PRC)

Current information (Y/N): Y

RCS size: LARGE

Orbital parameters

Period: 100.569 minutes

Inclination: 98.2245 deg

SMA: 7163.677 km

Apoapsis: 1047.354 km

Periapsis: 523.73 km

RAAN: 285.4581 deg

Eccentricy: 0.03654711

Argument of periapsis: 84.2921 deg

Mean anomaly: 279.9808 deg

Mean motion: 14.3185413 rev/day

Mean motion (dot): 0.00001624 rev/day2

B* drag term: 0.00029764001 1/REarth

Two-line elements (TLE)

Creation date: Oct. 21, 2025, 3:26 a.m.

Reference frame: TEME

Reference center: EARTH

Epoch: Oct. 20, 2025, 10:47 p.m. UTC

TLE line 0: 0 CZ-11 R/B

TLE line 1: 1 43161U 18008G 25293.94974056 .00001624 00000-0 29764-3 0 9991

TLE line 2: 2 43161 98.2245 285.4581 0365471 84.2921 279.9808 14.31854130404429

Live tracking on map

Real-time ground track for satellite CZ-11 R/B.

In-orbit conjunctions

A list of the most updated potential collisions computed for object CZ-11 R/B.

Target Orbit TCA Probability of collision Miss distance Type
CZ-6A DEB LEO 2025-09-12 11:55:29 0.0001309086 265.0 (m) DEBRIS
COSMOS 1275 DEB LEO 2024-07-22 15:13:21 0.0001233873 174.0 (m) DEBRIS
FENGYUN 1C DEB SSO 2024-07-01 18:17:59 0.0001022149 568.0 (m) DEBRIS

Associated space launch

Jilin-1 is a series of Chinese commercial remote sensing satellites. These two satellites are sharing the ride with several cubesats.

CZ-11 R/B was lifted into orbit during the mission ‘Long March 11 | Jilin-1-07 (Deqing-1), Jilin-1-08’, on board a Long March 11 space rocket.

The launch took place on Jan. 19, 2018, 4:12 a.m. from Launch Area 95A.

For more information about the launch, click the button.

Launch to space Long March 11 | Jilin-1-07 (Deqing-1), Jilin-1-08
Long March 11 | Jilin-1-07 (Deqing-1), Jilin-1-08

Agency: N/A

Status: Launch Successful

Launch date: Jan. 19, 2018, 4:12 a.m. UTC

Rocket: Long March 11

Launch pad: Launch Area 95A

Location: Jiuquan Satellite Launch Center, People's Republic of China

...

Latest news about this satellite

There are no fresh news available about this satellite. Check back as we update our databases every day.


Newsletter sign-up

Weekly statistics, charts and insights to help you stay on top of the space industry.